Date,TemperatureHighF,TemperatureAvgF,TemperatureLowF,DewpointHighF,DewpointAvgF,DewpointLowF,HumidityHigh,HumidityAvg,HumidityLow,PressureMaxIn,PressureMinIn,WindSpeedMaxMPH,WindSpeedAvgMPH,GustSpeedMaxMPH,PrecipitationSumIn
2014-1-1,5,1,-4,-4,-6,-10,75,71,65,29.85,29.72,19,1,19,0.00
2014-1-2,7,-2,-11,-2,-9,-17,74,72,65,29.92,29.76,24,2,24,0.00
2014-1-3,20,6,-13,16,0,-19,81,76,72,29.92,28.91,46,7,46,0.00
2014-1-4,30,16,3,26,10,-4,85,77,70,29.54,28.81,41,9,41,0.00
2014-1-5,3,-3,-7,-4,-11,-14,73,69,60,29.93,29.54,37,5,37,0.00
2014-1-6,-5,-5,-5,-12,-12,-12,70,70,70,29.93,29.93,0,0,0,0.00
2014-1-11,28,25,22,24,21,18,88,86,85,28.90,28.79,32,4,32,0.00
2014-1-12,39,32,22,32,27,19,88,82,73,28.86,28.56,40,2,40,0.04
2014-1-13,35,31,27,30,25,21,85,78,67,28.86,28.68,28,1,28,0.00
2014-1-14,34,22,8,30,17,2,88,82,78,29.30,28.62,86,13,86,0.00
2014-1-15,21,11,0,15,5,-5,83,76,67,29.49,28.81,36,4,36,0.00
2014-1-16,32,17,3,29,10,-4,87,75,65,29.26,28.56,60,14,60,0.00
2014-1-17,12,5,0,4,-1,-6,78,75,71,29.55,29.25,46,7,46,0.00
2014-1-18,22,14,5,14,9,0,84,79,70,29.25,28.87,35,5,35,0.00
2014-1-19,42,29,13,32,22,8,85,77,66,29.11,28.62,39,8,39,0.06
2014-1-20,30,21,-1,24,16,-9,84,80,70,29.49,28.87,59,6,59,0.00
2014-1-21,8,-1,-12,-1,-9,-19,77,69,63,29.81,29.38,30,1,30,0.00
2014-1-22,10,3,-8,6,-3,-14,81,76,71,30.03,29.28,43,10,43,0.00
2014-1-23,-8,-8,-8,-14,-14,-14,72,72,72,30.03,30.03,15,15,15,0.00
2014-1-24,34,33,32,31,28,23,88,81,69,28.92,28.63,40,5,40,0.04
2014-1-25,32,11,4,25,1,-6,76,63,51,29.34,28.68,42,2,42,0.00
2014-1-26,25,12,-5,20,7,-10,86,79,71,29.69,28.65,87,12,87,0.00
2014-1-27,-5,-5,-5,-10,-10,-10,79,79,79,29.70,29.70,8,8,25,0.00
2014-2-6,11,2,-2,-1,-8,-10,70,65,56,29.55,29.48,0,0,0,0.00
2014-2-7,26,4,-8,10,-5,-14,73,66,50,29.48,29.36,0,0,0,0.00
2014-2-8,29,10,-3,14,1,-10,74,67,51,29.37,29.23,0,0,0,0.00
2014-2-9,6,-1,-9,0,-9,-15,78,70,57,29.57,29.33,0,0,0,0.00
2014-2-10,7,-6,-14,-5,-14,-21,72,67,55,29.65,29.55,0,0,0,0.00
2014-2-11,15,0,-15,2,-9,-46,72,66,6,29.64,29.27,0,0,0,0.00
2014-2-12,37,14,9,20,5,0,77,66,47,29.28,28.71,44,0,44,0.00
2014-2-13,36,16,3,27,10,-3,80,74,63,28.73,28.42,0,0,0,0.00
2014-2-14,15,6,1,5,-1,-14,77,73,62,28.90,28.54,0,0,0,0.00
2014-2-15,18,10,-1,12,4,-7,81,76,67,28.89,28.66,0,0,0,0.00
2014-2-16,33,18,9,18,10,3,81,71,53,29.07,28.84,0,0,0,0.04
2014-2-17,42,24,18,30,18,0,81,75,61,29.05,28.54,25,0,25,56.37
2014-2-18,44,31,19,30,23,13,80,70,55,29.05,28.76,27,1,27,0.20
2014-2-19,43,32,22,32,26,18,83,77,65,29.10,28.90,23,2,23,0.00
2014-2-20,34,31,15,30,27,12,88,85,77,28.91,28.42,55,5,55,0.00
2014-2-21,22,14,10,14,9,4,86,78,70,29.07,28.63,39,4,39,0.00
2014-2-22,21,11,5,11,4,-1,77,72,63,29.36,29.06,18,1,18,0.00
2014-2-23,16,8,0,7,1,-6,76,72,62,29.49,29.35,21,2,21,0.00
2014-2-24,14,6,0,4,-1,-6,77,71,62,29.55,29.46,18,2,18,0.00
2014-2-25,7,0,-7,0,-7,-14,77,71,60,29.56,29.44,30,6,30,0.00
2014-2-26,15,2,-12,8,-6,-18,74,69,64,29.55,28.89,28,4,29,0.00
2014-2-27,3,-6,-12,-5,-16,-21,67,60,50,29.40,29.10,37,1,37,0.00
2014-2-28,21,7,-12,11,-1,-21,79,68,62,29.30,29.05,28,2,28,0.00
2014-3-1,12,1,-7,6,-7,-15,77,71,65,29.69,29.30,32,2,32,0.00
2014-3-2,-2,-8,-14,-13,-18,-22,67,63,55,29.79,29.66,22,1,22,0.00
2014-3-3,13,0,-14,0,-9,-20,75,64,50,29.70,29.40,15,0,15,0.00
2014-3-4,26,15,6,12,6,1,80,69,52,29.44,29.30,15,1,15,0.04
2014-3-5,28,18,11,17,11,6,81,73,59,29.59,29.43,25,3,25,0.10
2014-3-6,30,20,14,20,13,7,80,73,64,29.55,29.08,39,5,39,0.02
2014-3-7,36,28,22,29,23,17,84,80,74,29.34,28.99,29,3,29,0.06
2014-3-8,30,23,12,21,16,-40,84,76,7,29.50,29.32,19,1,107,0.00
2014-3-9,43,28,11,32,20,5,83,75,63,29.43,28.92,15,1,21,0.00
2014-3-10,50,40,32,37,32,20,83,73,58,28.98,28.87,5,0,5,0.00
2014-3-11,38,35,30,32,29,-20,86,78,8,29.15,28.90,18,2,18,0.04
2014-3-12,30,24,19,21,16,12,77,71,65,29.31,29.14,16,1,16,0.00
2014-3-13,48,34,17,39,27,11,82,76,67,29.32,28.81,25,2,25,0.00
2014-3-14,41,37,30,33,30,24,80,76,72,29.25,28.76,28,4,28,0.00
2014-3-15,32,28,23,24,20,14,79,72,65,29.60,29.15,19,1,19,0.00
2014-3-16,29,20,11,16,10,-2,69,63,33,29.70,29.27,19,2,19,0.00
2014-3-17,38,27,18,27,19,-3,75,71,33,29.37,28.78,25,4,25,0.00
2014-3-18,42,34,29,32,27,22,85,75,69,29.00,28.78,31,4,31,0.06
2014-3-19,34,31,26,29,25,12,87,80,43,29.31,28.90,179,2,179,0.02
2014-3-20,44,33,23,33,27,2,85,77,62,29.35,29.16,16,0,16,0.02
2014-3-21,48,34,28,38,28,22,80,76,65,29.38,28.97,31,5,31,0.00
2014-3-22,30,20,15,22,11,7,79,69,58,29.76,29.30,44,2,44,0.00
2014-3-23,24,18,-19,12,7,-27,72,64,55,29.81,29.55,0,0,0,0.00
2014-3-24,32,25,19,25,18,10,81,73,64,29.67,29.30,25,2,25,0.00
2014-3-25,21,17,11,13,6,-1,77,62,56,29.61,29.31,37,4,37,0.00
2014-3-26,42,28,12,25,16,4,76,63,49,29.45,28.86,30,3,30,0.00
2014-3-27,39,36,32,34,32,15,87,85,38,28.97,28.58,26,1,33,0.35
2014-3-28,37,32,29,29,25,24,87,76,65,29.49,28.85,37,3,37,0.00
2014-3-29,47,35,26,30,25,20,78,66,46,29.51,29.34,14,0,14,0.00
2014-3-30,63,46,34,44,34,26,78,65,47,29.40,29.02,40,3,40,0.00
2014-3-31,63,48,26,49,38,18,83,68,57,29.11,28.62,31,6,31,0.17
2014-4-1,37,28,20,28,20,13,81,73,67,29.39,28.82,33,4,37,0.00
2014-4-2,48,36,25,32,26,20,83,69,47,29.37,29.16,29,5,29,0.00
2014-4-3,39,35,31,32,29,10,86,80,33,29.26,28.86,29,6,29,0.27
2014-4-4,36,31,-17,28,26,-24,87,80,67,29.38,28.79,53,2,53,0.04
2014-4-5,51,37,24,37,28,12,86,72,33,29.46,29.23,12,0,12,0.00
2014-4-6,61,47,35,45,36,27,82,67,52,29.28,29.07,16,1,16,0.00
2014-4-7,58,47,41,46,40,33,85,76,51,29.17,28.94,15,0,15,0.04
2014-4-8,52,42,33,37,32,26,80,68,50,29.31,29.01,24,2,24,0.00
2014-4-9,69,44,29,41,31,23,81,62,34,29.29,28.90,28,2,28,0.00
2014-4-10,60,51,43,40,33,27,75,51,33,29.28,28.88,166,3,166,0.00
2014-4-11,67,51,38,41,33,28,69,52,33,29.31,29.18,22,2,22,0.00
2014-4-12,68,53,46,54,41,33,83,65,55,29.19,28.90,27,4,27,0.04
2014-4-13,46,39,32,41,35,28,87,86,83,29.10,28.94,23,1,23,0.75
2014-4-14,35,30,26,28,20,13,87,66,45,29.40,29.01,38,2,40,0.00
2014-4-15,39,29,19,19,14,11,70,55,39,29.47,29.25,16,1,19,0.00
2014-4-16,55,43,30,36,28,18,65,56,45,29.35,28.97,27,4,27,0.00
2014-4-17,49,34,30,36,28,5,85,77,33,29.61,29.01,38,5,38,0.00
2014-4-18,60,43,27,36,29,21,83,62,37,29.62,29.41,17,1,17,0.00
2014-4-19,73,56,36,48,39,28,74,54,39,29.52,29.26,25,4,27,0.00
2014-4-20,68,59,52,58,49,-29,84,70,53,29.37,29.21,25,2,25,1.24
2014-4-21,66,58,46,57,48,34,85,71,43,29.33,29.19,27,3,27,0.27
2014-4-22,58,47,36,37,33,29,77,58,42,29.42,29.32,23,1,23,0.00
2014-4-23,47,43,40,36,32,29,81,65,55,29.41,29.17,29,7,29,0.06
2014-4-24,49,43,39,44,38,35,86,83,78,29.18,28.96,26,3,26,0.84
2014-4-25,67,51,33,43,36,-22,86,62,34,29.15,29.05,22,0,22,0.00
2014-4-26,62,50,38,39,35,31,76,58,40,29.26,29.09,33,3,33,0.00
2014-4-27,51,44,39,43,38,29,84,77,59,29.16,28.82,54,11,54,1.26
2014-4-28,45,44,42,41,39,38,86,85,82,28.92,28.77,39,8,39,0.33
2014-4-29,42,38,32,38,34,28,87,86,85,29.00,28.80,28,4,28,0.32
2014-4-30,40,36,32,36,33,28,87,87,86,29.05,28.99,24,2,24,0.43
2014-5-1,45,41,37,40,37,34,87,84,79,29.17,28.99,27,1,27,0.06
2014-5-2,62,49,40,46,40,36,86,72,52,29.17,28.92,25,1,25,0.00
2014-5-3,62,51,40,40,36,33,79,60,39,29.25,29.03,20,0,20,0.00
2014-5-4,60,48,39,36,33,28,71,56,38,29.41,29.23,26,0,26,0.00
2014-5-5,68,54,44,40,36,11,65,51,34,29.27,29.19,31,0,31,0.00
2014-5-6,70,56,42,43,37,32,69,51,36,29.23,29.02,35,6,35,0.00
2014-5-7,78,63,50,59,48,38,69,58,49,29.05,28.90,35,7,35,0.00
2014-5-8,80,69,62,64,57,51,81,66,54,29.04,28.88,25,3,25,0.10
2014-5-9,62,54,48,54,42,37,80,67,45,29.13,28.91,21,3,21,0.00
2014-5-10,66,54,42,52,45,35,81,71,49,29.19,29.08,25,2,25,0.10
2014-5-11,72,60,49,61,53,44,84,79,69,29.24,29.00,22,3,22,0.20
2014-5-12,73,61,46,66,55,42,85,82,74,29.17,28.98,26,2,26,1.02
2014-5-13,53,46,43,42,38,34,86,75,57,29.52,29.16,25,2,25,0.00
2014-5-14,63,50,35,40,35,30,81,59,38,29.55,29.34,5,0,7,0.00
2014-5-15,50,44,39,36,33,20,82,66,33,29.39,29.32,24,1,24,0.08
2014-5-16,51,44,36,36,31,26,82,63,46,29.39,29.34,12,0,12,0.00
2014-5-17,69,51,34,39,32,25,71,51,31,29.40,29.30,8,0,20,0.00
2014-5-18,76,56,42,43,36,30,64,48,28,29.44,29.30,21,1,21,0.00
2014-5-19,68,58,51,56,48,39,82,68,49,29.35,29.06,30,4,30,0.04
2014-5-20,86,69,55,62,54,50,83,62,32,29.16,29.04,41,1,41,0.00
2014-5-21,72,63,55,52,48,45,79,60,45,29.40,29.15,19,3,24,0.00
2014-5-22,75,59,47,47,43,38,78,58,30,29.50,29.34,22,1,22,0.00
2014-5-23,83,65,50,50,43,38,68,46,29,29.53,29.41,33,0,33,0.00
2014-5-24,82,67,54,51,46,40,66,47,33,29.48,29.34,20,1,20,0.00
2014-5-25,81,68,55,61,53,42,71,59,50,29.38,29.23,21,1,21,0.00
2014-5-26,88,74,65,66,61,57,79,65,44,29.28,29.13,38,1,40,0.00
2014-5-27,84,70,62,64,60,55,82,73,49,29.24,29.12,19,1,19,0.00
2014-5-28,82,70,64,61,53,37,84,60,25,29.37,29.21,12,0,12,0.00
2014-5-29,93,72,58,59,51,44,69,50,29,29.42,29.30,36,1,36,0.00
2014-5-30,93,77,64,66,58,54,70,54,38,29.44,29.31,43,2,43,0.00
2014-5-31,87,73,68,66,60,56,80,64,48,29.42,29.22,25,1,25,0.25
2014-6-1,77,67,63,68,62,58,84,82,71,29.24,28.99,20,1,20,1.49
2014-6-2,80,67,62,64,58,54,84,74,51,29.19,29.00,118,2,118,0.02
2014-6-3,77,66,56,58,54,50,80,66,48,29.31,29.12,16,1,16,0.00
2014-6-4,77,68,62,60,57,53,82,68,52,29.23,29.05,21,0,21,0.00
2014-6-5,79,67,57,58,53,51,81,62,45,29.27,29.14,25,2,25,0.00
2014-6-6,91,72,59,65,57,51,81,62,37,29.26,29.16,27,0,27,0.00
2014-6-7,72,67,57,62,56,51,81,69,60,29.32,29.21,25,3,25,0.00
2014-6-8,78,64,51,51,48,45,82,57,32,29.40,29.29,17,0,17,0.00
2014-6-9,81,68,60,53,50,47,74,54,36,29.33,29.22,17,0,17,0.00
2014-6-10,81,69,60,60,54,50,74,59,46,29.24,29.15,16,0,16,0.00
2014-6-11,89,70,56,58,53,49,77,57,33,29.17,29.02,41,1,41,0.00
2014-6-12,70,64,55,56,48,41,74,57,42,29.29,29.02,29,7,29,0.00
2014-6-13,84,65,49,50,43,39,71,47,29,29.36,29.18,23,1,23,0.00
2014-6-14,74,64,58,55,48,42,79,55,43,29.28,28.99,25,2,25,0.31
2014-6-15,80,70,64,62,56,51,77,61,46,29.20,28.82,33,4,33,0.02
2014-6-16,81,68,59,67,57,50,83,68,49,29.27,28.94,37,2,37,0.33
2014-6-17,82,72,61,70,64,56,84,78,64,29.18,28.95,13,1,15,0.00
2014-6-18,87,74,65,72,67,60,84,78,62,29.22,29.05,20,1,20,0.10
2014-6-19,71,67,65,65,62,60,84,84,82,29.33,29.15,29,1,29,0.63
2014-6-20,91,74,64,69,62,60,84,69,39,29.29,29.11,48,1,48,0.00
2014-6-21,87,75,68,67,63,60,78,66,47,29.23,29.11,44,2,44,0.02
2014-6-22,75,69,66,67,62,60,83,79,69,29.22,29.06,12,0,16,0.10
2014-6-23,88,69,62,70,62,58,84,77,54,29.20,29.06,11,0,11,0.02
2014-6-24,83,72,62,63,60,56,81,65,45,29.26,29.20,37,1,37,0.00
2014-6-25,82,72,63,62,60,56,80,66,49,29.32,29.25,33,0,33,0.00
2014-6-26,87,73,64,68,63,58,82,72,54,29.33,29.20,35,1,35,0.00
2014-6-27,76,71,67,69,65,54,84,81,58,29.21,29.06,25,2,25,0.53
2014-6-28,85,73,65,73,66,60,84,80,68,29.15,29.03,35,4,35,0.06
2014-6-29,77,69,61,70,63,56,85,82,71,29.23,29.05,23,1,23,0.10
2014-6-30,71,66,63,65,61,58,85,84,79,29.11,28.80,23,0,23,0.06
2014-7-1,73,63,56,61,56,49,85,78,64,29.15,28.95,18,1,18,0.06
2014-7-2,68,59,53,53,50,49,85,73,53,29.39,29.15,14,1,14,0.00
2014-7-3,76,62,52,53,49,-28,80,64,41,29.52,29.31,24,0,24,0.00
2014-7-4,84,67,53,57,52,45,78,59,39,29.59,29.39,34,1,35,0.00
2014-7-5,76,67,61,66,59,53,83,75,65,29.47,29.21,24,1,26,0.00
2014-7-6,86,72,66,76,64,61,84,76,52,29.24,28.98,44,2,44,0.00
2014-7-7,84,74,64,68,63,57,81,69,56,29.13,28.97,48,0,48,0.00
2014-7-8,78,68,61,61,55,50,82,64,45,29.21,28.99,37,2,37,0.00
2014-7-9,80,65,56,58,52,49,79,66,45,29.32,29.14,28,0,28,0.00
2014-7-10,88,73,61,65,58,53,80,62,43,29.39,29.28,38,2,38,0.00
2014-7-11,84,69,64,68,59,56,77,70,58,29.38,29.29,33,2,33,0.00
2014-7-12,78,69,65,71,64,60,84,83,77,29.35,29.18,16,0,16,0.02
2014-7-13,80,70,62,65,59,54,85,70,43,29.29,29.19,31,1,31,0.00
2014-7-14,68,61,55,54,49,46,79,66,45,29.31,29.20,15,2,28,0.00
2014-7-15,68,58,51,51,49,46,84,72,51,29.37,29.24,24,3,24,0.00
2014-7-16,77,64,52,54,50,45,81,61,42,29.37,29.26,11,0,18,0.00
2014-7-17,83,67,55,59,52,47,77,61,44,29.38,29.26,45,0,45,0.00
2014-7-18,82,69,58,60,56,51,78,63,47,29.39,29.25,25,1,27,0.00
2014-7-19,83,72,64,63,59,56,80,66,49,29.32,29.18,28,1,28,0.00
2014-7-20,88,74,68,67,63,59,78,68,50,29.27,29.15,44,4,179,0.00
2014-7-21,93,79,70,76,69,63,79,72,56,29.26,29.18,42,4,42,0.00
2014-7-22,87,79,68,73,68,59,84,70,53,29.42,29.17,37,5,37,0.00
2014-7-23,82,70,60,60,57,53,83,63,44,29.53,29.42,17,1,17,0.10
2014-7-24,87,70,59,62,57,51,76,63,42,29.46,29.20,19,1,19,0.00
2014-7-25,87,72,62,70,63,57,84,74,54,29.28,29.09,27,2,27,0.08
2014-7-26,83,74,69,72,66,63,84,77,62,29.22,29.09,19,0,19,0.00
2014-7-27,73,68,62,64,60,57,82,76,60,29.39,29.14,21,2,21,0.00
2014-7-28,73,63,58,57,54,52,84,73,50,29.49,29.30,23,1,23,0.00
2014-7-29,78,66,55,58,54,50,83,66,47,29.44,29.29,23,1,34,0.00
2014-7-30,80,65,56,59,55,50,82,69,48,29.40,29.30,31,1,31,0.00
2014-7-31,81,70,58,59,55,51,80,62,44,29.37,29.31,29,1,29,0.00
2014-8-1,85,71,59,62,57,52,82,62,42,29.40,29.34,43,0,43,0.00
2014-8-2,89,73,62,66,59,55,81,65,43,29.45,29.33,49,1,49,0.00
2014-8-3,89,75,64,68,62,56,79,65,47,29.44,29.28,48,2,48,0.00
2014-8-4,85,73,67,68,63,59,81,71,57,29.38,29.24,37,0,37,0.00
2014-8-5,77,69,62,65,61,57,84,75,64,29.40,29.27,3,0,3,0.00
2014-8-6,81,69,62,66,60,56,83,75,55,29.39,29.30,10,0,10,0.00
2014-8-7,82,71,60,61,58,55,82,65,47,29.36,29.30,19,0,19,0.00
2014-8-8,86,73,65,64,59,56,80,62,44,29.39,29.28,36,0,36,0.00
2014-8-9,84,72,64,64,59,55,74,64,50,29.41,29.27,45,2,45,0.00
2014-8-10,86,73,64,65,60,55,77,66,48,29.38,29.23,20,0,48,0.00
2014-8-11,71,67,60,62,60,55,84,78,66,29.31,29.21,29,3,29,0.00
2014-8-12,76,65,55,58,52,39,85,66,41,29.36,29.31,41,3,41,0.00
2014-8-13,83,70,56,60,56,50,81,63,45,29.40,29.33,34,1,34,0.00
2014-8-14,83,71,60,60,56,50,70,59,44,29.43,29.30,25,0,25,0.00
2014-8-15,79,70,64,65,60,55,76,70,61,29.33,29.21,20,1,20,0.00
2014-8-16,85,73,64,70,64,58,84,74,58,29.23,29.17,50,2,50,0.00
2014-8-17,86,76,66,72,66,60,83,74,60,29.28,29.18,48,1,48,0.00
2014-8-18,89,75,65,73,66,60,84,74,50,29.21,28.98,47,1,47,0.71
2014-8-19,79,71,63,65,62,59,85,75,59,29.11,28.99,22,2,22,0.00
2014-8-20,84,72,64,70,64,58,84,77,63,29.20,29.10,16,0,16,0.00
2014-8-21,85,75,69,75,68,63,84,80,69,29.21,29.09,41,2,41,0.31
2014-8-22,87,77,70,75,70,65,84,79,66,29.30,29.15,48,2,48,0.00
2014-8-23,82,73,68,74,68,63,84,82,73,29.32,29.14,45,1,45,0.55
2014-8-24,91,77,69,76,70,64,84,79,61,29.20,29.11,42,3,42,0.04
2014-8-25,83,73,67,71,65,60,84,77,60,29.36,29.12,53,2,53,0.20
2014-8-26,76,67,61,60,57,-26,83,72,52,29.52,29.33,22,1,22,0.00
2014-8-27,78,68,59,62,57,53,81,71,54,29.51,29.39,50,0,50,0.00
2014-8-28,68,65,61,63,60,56,84,83,77,29.42,29.13,16,0,16,0.12
2014-8-29,84,71,66,74,64,61,85,80,66,29.16,29.05,47,2,47,0.24
2014-8-30,79,70,65,67,63,60,85,79,66,29.20,29.06,20,1,20,0.10
2014-8-31,87,70,62,72,63,57,85,78,60,29.20,28.92,41,2,41,0.71
2014-9-1,75,66,62,65,59,55,85,78,58,29.16,28.91,36,0,38,0.31
2014-9-2,78,66,58,61,57,49,85,73,52,29.24,29.10,28,0,36,0.41
2014-9-3,84,70,58,71,63,53,84,78,57,29.26,28.99,37,3,37,0.00
2014-9-4,89,77,70,75,69,64,85,78,63,29.20,29.00,42,3,42,0.00
2014-9-5,73,60,52,66,53,47,83,78,67,29.49,29.12,28,2,28,0.10
2014-9-6,74,60,48,54,49,44,85,71,45,29.54,29.43,29,1,29,0.00
2014-9-7,78,64,53,57,52,47,80,67,45,29.49,29.29,34,0,34,0.00
2014-9-8,70,61,55,59,52,48,81,74,61,29.36,29.17,17,1,17,0.00
2014-9-9,73,66,63,63,60,58,85,81,70,29.20,28.93,23,1,23,0.08
2014-9-10,66,58,47,61,53,41,85,83,77,29.35,28.86,22,2,22,0.10
2014-9-11,55,48,43,42,39,37,82,71,54,29.64,29.35,16,0,16,0.00
2014-9-12,49,45,40,44,40,35,84,81,75,29.72,29.60,7,0,7,0.24
2014-9-13,62,47,36,42,37,32,86,70,44,29.66,29.52,17,0,17,0.00
2014-9-14,68,56,45,51,45,37,79,69,53,29.52,29.39,20,0,20,0.00
2014-9-15,58,52,46,47,44,39,86,74,58,29.52,29.41,20,0,20,0.35
2014-9-16,69,53,41,49,42,36,83,68,45,29.53,29.33,16,0,16,0.00
2014-9-17,75,59,48,56,48,41,81,68,48,29.33,29.24,10,0,10,0.00
2014-9-18,76,61,50,56,50,44,83,69,49,29.41,29.25,17,1,17,0.00
2014-9-19,78,64,52,63,56,46,81,75,60,29.34,29.01,38,3,38,0.00
2014-9-20,77,67,56,64,59,51,85,76,50,29.20,29.01,41,1,41,0.41
2014-9-21,63,56,51,51,47,45,85,74,57,29.51,29.18,15,1,15,0.00
2014-9-22,72,63,51,52,48,45,80,60,49,29.52,29.47,0,0,0,0.00
2014-9-23,74,60,49,55,49,43,83,67,49,29.57,29.46,30,0,30,0.00
2014-9-24,63,59,56,55,51,48,82,74,66,29.52,29.46,17,0,17,0.06
2014-9-25,76,65,56,60,55,50,82,70,55,29.52,29.45,9,0,9,0.00
2014-9-26,81,67,56,61,55,49,79,66,49,29.49,29.41,31,1,31,0.00
2014-9-27,81,68,59,63,57,53,82,68,50,29.49,29.39,37,1,37,0.00
2014-9-28,83,68,59,63,56,52,80,66,47,29.46,29.35,36,0,36,0.00
2014-9-29,69,60,52,60,53,46,82,76,70,29.35,29.31,114,1,114,0.00
2014-9-30,63,53,47,52,46,42,84,77,65,29.35,29.11,17,1,17,0.00
2014-10-1,63,55,50,58,50,44,86,83,76,29.20,29.08,20,1,20,0.47
2014-10-2,66,58,51,60,54,47,86,85,83,29.13,28.98,20,0,20,1.30
2014-10-3,51,44,36,47,34,25,86,70,52,29.20,29.03,29,1,29,0.00
2014-10-4,49,40,34,33,29,25,78,64,49,29.14,29.04,21,1,21,0.00
2014-10-5,50,43,33,39,34,26,79,70,56,29.04,28.82,3,0,3,0.00
2014-10-6,58,48,36,41,37,31,84,68,50,28.94,28.83,9,0,9,0.00
2014-10-7,60,52,45,45,40,36,79,64,46,29.20,28.79,15,0,15,0.00
2014-10-8,66,52,40,39,36,33,77,56,33,29.38,29.20,19,1,19,0.00
2014-10-9,55,46,38,34,31,28,72,56,36,29.49,29.36,17,0,17,0.00
2014-10-10,56,44,33,36,31,27,81,63,44,29.56,29.46,15,0,15,0.00
2014-10-11,61,44,32,39,32,26,79,63,42,29.56,29.33,14,0,14,0.00
2014-10-12,57,47,-22,46,38,-30,85,73,62,29.34,29.09,23,1,23,0.00
2014-10-13,53,50,49,48,46,45,86,85,84,29.12,28.93,32,2,32,0.63
2014-10-14,59,51,46,46,43,36,86,75,51,29.20,28.91,29,3,29,0.10
2014-10-15,65,50,39,39,36,33,82,60,33,29.27,29.16,40,1,40,0.00
2014-10-16,71,53,40,48,40,32,83,63,42,29.17,28.92,34,0,34,0.00
2014-10-17,52,50,45,43,42,39,79,73,62,29.35,28.94,20,1,20,0.00
2014-10-18,54,46,39,39,36,32,86,70,52,29.51,29.34,12,0,12,0.00
2014-10-19,66,50,37,48,40,30,84,69,52,29.42,29.13,30,1,30,0.00
2014-10-20,64,53,44,45,41,36,80,64,45,29.35,29.15,17,2,17,0.00
2014-10-21,64,49,40,46,38,34,81,68,50,29.49,29.34,15,0,15,0.00
2014-10-22,59,48,38,43,38,32,83,70,55,29.54,29.39,19,2,19,0.00
2014-10-23,62,52,48,55,46,40,85,80,66,29.39,29.28,14,0,14,0.22
2014-10-24,60,52,45,55,47,41,86,86,85,29.31,29.16,15,0,15,0.00
2014-10-25,64,54,45,47,38,-41,86,59,33,29.38,29.22,19,1,19,0.00
2014-10-26,61,49,36,37,33,28,72,54,38,29.35,28.92,18,1,18,0.00
2014-10-27,68,56,45,54,44,36,78,66,51,29.07,28.78,19,2,19,0.00
2014-10-28,48,43,37,39,34,28,82,71,62,29.32,29.05,14,2,16,0.00
2014-10-29,46,39,34,33,30,27,77,68,59,29.47,29.31,16,2,16,0.00
2014-10-30,49,42,36,39,33,24,81,72,57,29.54,29.33,21,1,21,0.00
2014-10-31,40,31,24,24,18,3,71,58,23,29.78,29.51,18,3,18,0.00
2014-11-1,44,31,21,26,19,13,75,61,44,29.77,29.53,16,1,16,0.00
2014-11-2,56,42,32,32,27,21,68,54,39,29.53,29.14,18,2,18,0.00
2014-11-3,56,48,41,47,38,28,85,70,56,29.24,29.09,17,1,17,0.04
2014-11-4,55,44,34,40,33,25,85,67,45,29.35,29.15,15,0,15,0.00
2014-11-5,48,41,32,39,33,24,83,73,65,29.35,29.11,14,1,14,0.00
2014-11-6,42,35,28,30,27,22,81,71,57,29.57,29.41,24,2,24,0.00
2014-11-7,48,38,27,41,29,22,83,71,55,29.53,29.03,18,2,19,0.00
2014-11-8,43,37,33,37,25,-30,80,64,52,29.35,29.00,25,4,25,0.00
2014-11-9,45,38,33,33,30,25,83,72,57,29.20,29.05,15,1,15,0.00
2014-11-10,56,38,28,43,32,24,86,81,61,29.08,28.69,31,6,31,0.00
2014-11-11,28,23,18,24,18,12,86,80,76,29.58,29.07,22,4,22,0.00
2014-11-12,21,18,15,16,12,9,83,77,71,29.65,29.57,15,1,15,0.00
2014-11-13,21,18,10,16,13,5,84,78,71,29.70,29.64,13,2,14,0.00
2014-11-14,20,13,9,12,7,-29,81,76,67,29.72,29.63,9,0,9,0.00
2014-11-15,24,18,9,18,12,3,84,80,77,29.64,29.43,0,0,0,0.00
2014-11-16,19,14,9,15,8,1,85,77,63,29.44,29.24,13,0,13,0.00
2014-11-17,12,8,4,5,2,-2,79,76,70,29.39,29.24,30,3,30,0.00
2014-11-18,18,12,3,10,5,-3,79,73,62,29.42,29.12,16,0,16,0.00
2014-11-19,23,19,13,17,12,7,81,73,64,29.35,29.07,31,2,31,0.00
2014-11-20,20,12,5,9,4,-1,79,72,60,29.61,29.34,14,0,14,0.00
2014-11-21,30,18,3,24,11,-3,80,74,65,29.63,29.30,16,1,16,0.00
2014-11-22,48,36,30,44,32,24,87,86,78,29.30,28.91,16,1,16,0.00
2014-11-23,49,44,32,45,40,28,88,86,85,28.92,28.54,36,3,36,0.06
2014-11-24,31,20,13,28,15,8,88,83,78,29.25,28.54,31,6,31,0.00
2014-11-25,30,17,8,19,11,4,83,77,62,29.41,29.25,11,0,11,0.00
2014-11-26,29,23,16,23,19,12,86,83,78,29.64,29.30,16,1,16,0.00
2014-11-27,16,4,-5,12,-2,-10,82,75,68,29.82,29.59,14,0,14,0.00
2014-11-28,27,19,8,21,13,2,86,78,73,29.60,29.00,15,1,15,0.00
2014-11-29,45,32,21,36,27,18,88,82,69,29.00,28.76,13,0,13,0.10
2014-11-30,24,14,5,21,7,-3,87,73,65,29.83,28.95,83,3,83,0.00
2014-12-1,9,5,1,0,-4,-8,70,66,58,30.06,29.76,14,1,14,0.00
2014-12-2,30,18,8,16,9,0,74,67,54,29.77,29.29,16,1,16,0.00
2014-12-3,27,19,13,14,10,7,78,67,53,29.65,29.34,16,0,16,0.00
2014-12-4,34,24,16,21,14,8,75,65,49,29.65,29.44,16,1,16,0.00
2014-12-5,33,30,28,29,25,21,88,83,75,29.66,29.42,15,0,15,0.00
2014-12-6,39,28,21,29,22,18,88,78,62,29.89,29.65,18,1,18,0.00
2014-12-7,33,29,24,28,24,18,87,80,75,29.85,29.39,16,2,16,0.06
2014-12-8,34,29,22,30,25,17,88,85,80,29.58,29.30,33,3,33,0.04
2014-12-9,33,24,19,26,20,15,87,82,73,29.75,29.58,14,0,14,0.00
2014-12-10,30,27,25,24,22,21,86,82,79,29.69,29.56,3,0,3,0.00
2014-12-11,28,26,24,25,22,20,88,86,81,29.59,29.52,13,0,13,0.00
2014-12-12,34,32,28,31,29,25,89,88,88,29.56,29.43,17,1,17,0.00
2014-12-13,44,39,30,40,36,27,89,88,87,29.45,29.26,10,0,10,0.00
2014-12-14,47,45,43,44,42,39,88,87,87,29.27,29.15,0,0,0,0.00
2014-12-15,46,44,36,42,41,33,89,88,87,29.15,28.94,4,0,4,0.20
2014-12-16,36,22,16,33,18,11,90,84,80,29.57,29.04,0,0,0,0.00
2014-12-17,23,16,10,16,11,6,85,81,73,29.64,29.56,0,0,0,0.00
2014-12-18,24,19,14,18,14,10,85,81,75,29.61,29.54,0,0,0,0.00
2014-12-19,29,25,22,24,21,17,83,82,79,29.58,29.49,10,0,10,0.00
2014-12-20,30,28,26,27,25,22,89,88,83,29.49,29.38,17,0,17,0.00
2014-12-21,36,34,30,33,31,27,89,89,88,29.39,29.07,31,1,31,0.02
2014-12-22,36,34,32,33,31,30,90,89,89,29.07,28.83,25,3,25,0.20
2014-12-23,33,32,31,31,29,28,90,89,89,29.11,28.81,16,0,16,0.22
2014-12-24,33,32,28,30,28,25,90,89,87,29.10,28.94,21,2,21,0.04
2014-12-25,37,32,27,32,28,24,89,87,81,29.11,28.97,25,1,25,0.00
2014-12-26,33,30,26,29,27,23,90,88,86,29.31,29.10,57,1,57,0.00
2014-12-27,30,21,10,28,17,6,90,84,78,29.47,29.19,59,1,59,0.00